Location: Sternwarte Hubelmatt
(47.0367°N, 8.3053°E)
Time: 20:00:23
(UTC+02:00)

UWE-3 - Pass Details

Date: 27 April 2024
Orbit: 569 x 652 km, 97.8° (Epoch: 19 May)

Event Time Altitude Azimuth Distance (km) Brightness Sun altitude
Rises 04:09:23 0° 12° (NNE) 2,870 ? -18.7°
Reaches altitude 10° 04:11:33 10° 12° (NNE) 1,976 ? -18.5°
Maximum altitude 04:15:51 86° 285° (WNW) 630 ? -18.0°
Enters shadow 04:17:49 33° 197° (SSW) 1,068 ? -17.7°
